Location: Newark
(49.8348°N, 24.0280°E)
Time: 00:07:57
(UTC+00:00)

S-56A Canister/Altair - Pass Details

Date: 03 February 2020
Orbit: 633 x 2499 km, 38.9° (Epoch: 23 February)

Event Time Altitude Azimuth Distance (km) Brightness Sun altitude
Rises 17:50:54 0° 254° (WSW) 4,844 12.8 -24.3°
Reaches altitude 10° 17:54:52 10° 247° (WSW) 3,530 11.7 -24.9°
Maximum altitude 18:02:13 34° 187° (S) 1,693 9.2 -26.1°
Enters shadow 18:03:38 31° 163° (SSE) 1,696 9.0 -26.3°
Drops below altitude 10° 18:07:27 10° 123° (ESE) 2,487 - -27.0°
Sets 18:09:48 0° 114° (ESE) 3,257 - -27.3°
